Location: Crayja
(6.2254°N, 10.6273°W)
Time: 09:28:23
(UTC+00:00)

Cosmos 2278 Rocket - Pass Details

Date: 17 February 2020
Orbit: 840 x 846 km, 71.0° (Epoch: 28 March)

Event Time Altitude Azimuth Distance (km) Brightness Sun altitude
Exits shadow 05:47:22 31° 277° (W) 1,445 2.8 -18.2°
Maximum altitude 05:48:23 33° 256° (WSW) 1,384 2.8 -17.9°
Drops below altitude 10° 05:53:25 10° 193° (SSW) 2,463 4.6 -16.7°
Sets 05:56:05 0° 183° (S) 3,399 5.4 -16.0°
